Norfolk, NE

6:19 PM CST on December 03, 2016 (GMT -0600)
Stefan Memorial

Weather History for KOFK - December, 2014

Change the Weather History Date:

Wednesday, December 31, 2014

  Actual Average Record
Temperature  
Mean Temperature 3 °F 22 °F  
Max Temperature 17 °F 32 °F 72 °F (1904)
Min Temperature -11 °F 12 °F -22 °F (1967)
Degree Days  
Heating Degree Days 62 43  
Month to date heating degree days 1136 1262  
Since 1 July heating degree days 2629 2706  
Cooling Degree Days 0 0  
Month to date cooling degree days 0 0  
Year to date cooling degree days 812 915  
Moisture  
Dew Point -3 °F    
Average Humidity 66    
Maximum Humidity 79    
Minimum Humidity 53    
Precipitation  
Precipitation 0.00 in 0.02 in 0.90 in (1931)
Month to date precipitation 1.20 0.75  
Year to date precipitation 29.71 27.41  
Snow  
Snow 0.00 in 0.20 in - ()
Month to date snowfall 5.9 6.0  
Since 1 July snowfall 9.6 10.9  
Snow Depth 3.00 in    
Sea Level Pressure  
Sea Level Pressure 30.46 in    
Wind  
Wind Speed 10 mph (WSW)    
Max Wind Speed 25 mph    
Max Gust Speed 32 mph    
Visibility 10 miles    
Events      
T = Trace of Precipitation, MM = Missing Value Source: NWS Daily Summary

Daily Weather History Graph

Daily Weather History Graph

Search for Another Location

Airport or City:

Trip Planner

Search our weather history database for the weather conditions in past years. The results will help you decide how hot, cold, wet, or windy it might be!

Date:

Astronomy

Dec. 31, 2014 Rise Set
Actual Time 7:57 AM CST 5:08 PM CST
Civil Twilight 7:26 AM CST 5:39 PM CST
Nautical Twilight 6:50 AM CST 6:14 PM CST
Astronomical Twilight 6:17 AM CST 6:48 PM CST
Moon 2:02 PM CST (12/31) 3:22 AM CST (12/31)
Length of Visible Light 10h 13m
Length of Day
9h 10m
Waxing Gibbous, 80% of the Moon is Illuminated
Dec 31
Waxing Gibbous
Jan 4
Full
Jan 13
Last Quarter
Jan 20
New
Jan 26
First Quarter

Hourly Weather History & Observations

Time (CST) Temp. Windchill Dew Point Humidity Pressure Visibility Wind Dir Wind Speed Gust Speed Precip Events Conditions
12:56 AM -6.0 °F -20.1 °F -11.9 °F 75% 30.79 in 10.0 mi West 6.9 mph - N/A   Clear
1:56 AM -6.0 °F -16.9 °F -11.9 °F 75% 30.77 in 10.0 mi West 4.6 mph - N/A   Clear
2:56 AM -8.0 °F - -13.0 °F 79% 30.76 in 10.0 mi Calm Calm - N/A   Clear
3:56 AM -9.9 °F -27.5 °F -15.0 °F 78% 30.72 in 10.0 mi SSW 9.2 mph - N/A   Clear
4:56 AM -9.0 °F -25.2 °F -14.1 °F 79% 30.67 in 10.0 mi SSW 8.1 mph - N/A   Clear
5:56 AM -5.1 °F -17.6 °F -11.9 °F 72% 30.63 in 10.0 mi WSW 5.8 mph - N/A   Clear
6:56 AM -2.0 °F -21.2 °F -9.9 °F 69% 30.59 in 10.0 mi SW 13.8 mph - N/A   Clear
7:56 AM -2.9 °F -18.8 °F -11.0 °F 68% 30.56 in 10.0 mi SSW 9.2 mph - N/A   Clear
8:56 AM 1.0 °F -18.0 °F -9.0 °F 63% 30.54 in 10.0 mi SW 15.0 mph - N/A   Clear
9:56 AM 3.0 °F -14.8 °F -7.1 °F 63% 30.52 in 10.0 mi SW 13.8 mph - N/A   Clear
10:56 AM 8.1 °F -11.7 °F -4.0 °F 58% 30.48 in 10.0 mi SW 20.7 mph 27.6 mph N/A   Clear
11:56 AM 10.9 °F -5.4 °F -2.0 °F 56% 30.42 in 10.0 mi WSW 15.0 mph 27.6 mph N/A   Clear
12:56 PM 14.0 °F -2.5 °F 1.0 °F 56% 30.38 in 10.0 mi SW 17.3 mph - N/A   Clear
1:56 PM 15.1 °F -1.1 °F 1.9 °F 56% 30.36 in 10.0 mi WSW 17.3 mph - N/A   Clear
2:56 PM 17.1 °F 3.0 °F 3.0 °F 54% 30.35 in 10.0 mi WSW 13.8 mph - N/A   Clear
3:56 PM 17.1 °F 5.8 °F 3.9 °F 56% 30.35 in 10.0 mi WSW 9.2 mph - N/A   Clear
4:56 PM 15.1 °F 2.5 °F 3.9 °F 61% 30.34 in 10.0 mi WSW 10.4 mph - N/A   Clear
5:56 PM 12.0 °F 0.5 °F 3.0 °F 67% 30.33 in 10.0 mi WSW 8.1 mph - N/A   Clear
6:56 PM 10.9 °F -0.8 °F 1.9 °F 67% 30.32 in 10.0 mi SW 8.1 mph - N/A   Clear
7:56 PM 10.9 °F -0.8 °F 1.9 °F 67% 30.32 in 10.0 mi WSW 8.1 mph - N/A   Clear
8:56 PM 10.9 °F 0.2 °F 1.9 °F 67% 30.31 in 10.0 mi WSW 6.9 mph - N/A   Clear
9:56 PM 9.0 °F -2.2 °F 1.9 °F 73% 30.29 in 10.0 mi West 6.9 mph - N/A   Clear
10:56 PM 10.9 °F -2.6 °F 3.0 °F 70% 30.28 in 10.0 mi WSW 10.4 mph - N/A   Clear
11:56 PM 14.0 °F 1.2 °F 5.0 °F 67% 30.25 in 10.0 mi West 10.4 mph - N/A   Clear